period_start,C,m1,H,J0,J1,J2,J3,J4,J5,JA,JB,JC,JD,JJ,JK,JN,#
2017-10-25 00:04:37,0.04,0.65,0.00,18.37,21.72,24.72,14.06,46.59,1006.85,2051.95,3308.91,2935.83,3366.13,600.18,599.74,12.02,0000 0000 0000 0000 000000
2017-10-25 00:09:38,0.04,0.66,0.00,18.39,21.73,24.72,14.03,46.61,1006.86,2051.85,3307.86,2935.02,3365.23,600.10,599.84,12.07,0000 0000 0000 0000 000000
2017-10-25 00:14:39,0.05,0.66,0.00,18.35,21.74,24.73,14.05,46.67,1006.88,2051.68,3306.87,2934.18,3364.44,600.25,599.91,12.12,0000 0000 0000 0000 000000
2017-10-25 00:19:41,0.03,0.66,0.00,18.38,21.76,24.75,14.06,46.74,1006.87,2051.35,3305.77,2933.46,3363.56,600.23,599.82,12.17,0000 0000 0000 0000 000000
2017-10-25 00:24:42,0.02,0.66,0.00,18.41,21.77,24.78,13.97,46.54,1006.86,2051.20,3304.75,2932.78,3362.83,599.94,599.49,12.22,0000 0000 0000 0000 000000
2017-10-25 00:29:43,0.03,0.66,0.00,18.42,21.77,24.76,13.99,46.57,1006.87,2051.12,3303.76,2932.03,3361.97,600.06,599.66,12.27,0000 0000 0000 0000 000000
2017-10-25 00:34:44,0.05,0.66,0.00,18.42,21.78,24.78,14.05,46.73,1006.86,2051.07,3302.79,2931.31,3361.12,599.98,599.56,12.32,0000 0000 0000 0000 000000
2017-10-25 00:39:46,0.04,0.67,0.00,18.40,21.79,24.79,14.06,46.65,1006.86,2051.05,3301.85,2930.72,3360.34,599.92,599.55,12.37,0000 0000 0000 0000 000000
2017-10-25 00:44:47,0.04,0.67,0.00,18.45,21.80,24.79,14.05,46.67,1006.87,2051.02,3300.91,2930.00,3359.60,600.18,599.51,12.42,0000 0000 0000 0000 000000
2017-10-25 00:49:48,0.04,0.67,0.00,18.46,21.82,24.82,13.93,46.51,1006.87,2051.00,3299.95,2929.21,3358.85,599.76,599.27,12.47,0000 0000 0000 0000 000000
2017-10-25 00:54:49,0.04,0.67,0.00,18.49,21.82,24.82,14.01,46.47,1006.86,2051.00,3299.05,2928.57,3358.04,599.94,599.44,12.52,0000 0000 0000 0000 000000
2017-10-25 00:59:50,0.03,0.68,0.00,18.49,21.84,24.82,13.99,46.50,1006.86,2051.00,3298.14,2928.01,3357.22,599.95,599.29,12.57,0000 0000 0000 0000 000000
2017-10-25 01:04:51,0.05,0.68,0.00,18.46,21.85,24.84,14.03,46.45,1006.88,2051.00,3297.18,2927.26,3356.54,599.96,599.41,12.62,0000 0000 0000 0000 000000
2017-10-25 01:09:52,0.03,0.68,0.00,18.49,21.87,24.84,13.95,46.47,1006.89,2051.00,3296.27,2926.69,3355.87,599.87,599.42,12.67,0000 0000 0000 0000 000000
2017-10-25 01:14:54,0.04,0.68,0.00,18.52,21.87,24.88,13.97,46.51,1006.86,2051.00,3295.44,2926.02,3355.07,600.10,599.48,12.72,0000 0000 0000 0000 000000
2017-10-25 01:19:55,0.05,0.68,0.00,18.54,21.89,24.91,14.03,46.71,1006.86,2051.00,3294.48,2925.36,3354.31,599.72,599.11,12.77,0000 0000 0000 0000 000000
2017-10-25 01:24:57,0.05,0.69,0.00,18.57,21.90,24.88,13.94,46.55,1006.85,2050.99,3293.42,2924.66,3353.53,599.88,599.09,12.82,0000 0000 0000 0000 000000
2017-10-25 01:29:58,0.04,0.69,0.00,18.57,21.92,24.91,14.04,46.66,1006.86,2050.98,3292.09,2923.89,3352.58,600.20,599.48,12.87,0000 0000 0000 0000 000000
2017-10-25 01:34:59,0.04,0.69,0.00,18.57,21.93,24.92,14.01,46.77,1006.86,2050.97,3291.11,2923.07,3351.87,600.19,599.51,12.92,0000 0000 0000 0000 000000
2017-10-25 01:40:01,0.09,0.70,0.00,18.56,21.94,24.93,13.98,46.72,1006.85,2050.97,3289.50,2922.16,3350.68,600.16,599.40,12.97,0000 0000 0000 0000 000000
2017-10-25 01:45:02,0.13,0.70,0.00,18.61,21.96,24.94,13.99,46.69,1006.86,2050.93,3286.33,2920.49,3348.83,599.78,599.07,13.02,0000 0000 0000 0000 000000
2017-10-25 01:50:03,0.13,0.71,0.00,18.63,21.97,24.96,14.00,46.64,1006.85,2050.87,3282.86,2918.66,3346.78,599.98,599.10,13.07,0000 0000 0000 0000 000000
2017-10-25 01:55:04,0.06,0.71,0.00,18.59,21.99,24.96,14.01,46.73,1006.85,2050.64,3280.30,2917.27,3345.14,599.90,599.16,13.12,0000 0000 0000 0000 000000
2017-10-25 02:00:06,0.07,0.72,0.00,18.62,21.99,24.98,14.12,46.69,1006.85,2050.26,3278.19,2915.93,3343.65,600.57,599.70,13.17,0000 0000 0000 0000 000000
2017-10-25 02:05:07,0.07,0.72,0.00,18.66,22.02,25.02,13.97,46.65,1006.85,2050.13,3276.27,2914.69,3342.31,600.31,599.37,13.23,0000 0000 0000 0000 000000
2017-10-25 02:10:08,0.10,0.73,0.00,18.64,22.02,25.02,13.99,46.61,1006.86,2050.08,3273.68,2913.23,3340.58,599.76,598.92,13.28,0000 0000 0000 0000 000000
2017-10-25 02:15:10,0.11,0.73,0.00,18.67,22.04,25.05,14.06,46.70,1006.86,2050.04,3271.24,2911.69,3338.93,600.14,599.30,13.33,0000 0000 0000 0000 000000
2017-10-25 02:20:11,0.08,0.74,0.00,18.70,22.05,25.05,13.99,46.66,1006.87,2050.01,3269.19,2910.38,3337.45,599.86,599.08,13.38,0000 0000 0000 0000 000000
2017-10-25 02:25:12,0.09,0.74,0.00,18.72,22.07,25.05,14.00,46.68,1006.85,2050.00,3267.14,2909.01,3335.95,599.96,598.90,13.43,0000 0000 0000 0000 000000
2017-10-25 02:30:13,0.10,0.75,0.00,18.73,22.07,25.06,14.03,46.61,1006.85,2050.00,3264.84,2907.58,3334.37,600.07,599.02,13.48,0000 0000 0000 0000 000000
2017-10-25 02:35:15,0.06,0.75,0.00,18.72,22.09,25.07,13.95,46.55,1006.85,2050.00,3263.18,2906.40,3333.06,599.99,598.92,13.53,0000 0000 0000 0000 000000
2017-10-25 02:40:16,0.06,0.75,0.00,18.74,22.10,25.07,14.03,46.62,1006.85,2050.00,3261.87,2905.51,3332.04,600.39,599.26,13.58,0000 0000 0000 0000 000000
2017-10-25 02:45:17,0.04,0.76,0.00,18.73,22.12,25.12,13.90,46.55,1006.86,2049.99,3260.77,2904.79,3331.13,599.70,598.80,13.63,0000 0000 0000 0000 000000
2017-10-25 02:50:18,0.05,0.76,0.00,18.75,22.13,25.13,14.06,46.64,1006.87,2049.99,3259.64,2903.99,3330.20,600.23,599.15,13.68,0000 0000 0000 0000 000000
2017-10-25 02:55:19,0.06,0.76,0.00,18.73,22.14,25.13,13.99,46.51,1006.86,2049.98,3258.47,2903.13,3329.30,599.78,598.73,13.73,0000 0000 0000 0000 000000
2017-10-25 03:00:20,0.05,0.77,0.00,18.76,22.16,25.14,14.00,46.57,1006.86,2049.98,3257.28,2902.23,3328.34,600.06,598.82,13.78,0000 0000 0000 0000 000000
2017-10-25 03:05:21,0.06,0.77,0.00,18.78,22.17,25.17,14.13,46.71,1006.87,2049.98,3256.09,2901.48,3327.49,599.96,598.73,13.83,0000 0000 0000 0000 000000
2017-10-25 03:10:23,0.06,0.77,0.00,18.77,22.19,25.17,13.99,46.57,1006.87,2049.94,3254.76,2900.57,3326.50,599.80,598.77,13.88,0000 0000 0000 0000 000000
2017-10-25 03:15:24,0.05,0.77,0.00,18.82,22.19,25.20,13.99,46.63,1006.88,2049.93,3253.55,2899.70,3325.58,599.82,598.59,13.93,0000 0000 0000 0000 000000
2017-10-25 03:20:25,0.06,0.78,0.00,18.85,22.22,25.21,14.01,46.57,1006.88,2049.77,3251.83,2898.54,3324.16,600.20,598.93,13.98,0000 0000 0000 0000 000000
2017-10-25 03:25:27,0.06,0.78,0.00,18.80,22.22,25.21,13.95,46.52,1006.86,2049.36,3249.75,2897.03,3322.50,599.94,598.70,14.03,0000 0000 0000 0000 000000
2017-10-25 03:30:28,0.09,0.78,0.00,18.84,22.24,25.25,14.03,46.49,1006.87,2049.28,3247.81,2895.72,3321.00,599.99,598.72,14.08,0000 0000 0000 0000 000000
2017-10-25 03:35:30,0.08,0.79,0.00,18.86,22.24,25.29,14.04,46.58,1006.92,2049.15,3245.89,2894.45,3319.55,600.10,598.90,14.13,0000 0000 0000 0000 000000
2017-10-25 03:40:31,0.07,0.79,0.00,18.82,22.26,25.25,14.02,46.54,1006.96,2049.04,3243.98,2893.06,3318.01,600.12,598.96,14.18,0000 0000 0000 0000 000000
2017-10-25 03:45:33,0.06,0.80,0.00,18.87,22.27,25.26,13.98,46.48,1007.06,2049.02,3242.70,2892.10,3317.04,599.77,598.50,14.23,0000 0000 0000 0000 000000
2017-10-25 03:50:34,0.05,0.80,0.00,18.93,22.29,25.30,14.05,46.55,1007.15,2049.02,3241.63,2891.36,3316.15,600.25,598.95,14.28,0000 0000 0000 0000 000000
2017-10-25 03:55:36,0.06,0.80,0.00,18.88,22.29,25.27,13.97,46.46,1007.21,2049.01,3240.49,2890.58,3315.19,599.69,598.46,14.33,0000 0000 0000 0000 000000
2017-10-25 04:00:37,0.08,0.81,0.00,18.93,22.32,25.28,14.05,46.60,1007.28,2049.00,3238.88,2889.41,3313.82,599.80,598.62,14.38,0000 0000 0000 0000 000000
2017-10-25 04:05:38,0.09,0.81,0.00,18.96,22.32,25.30,14.05,46.50,1007.27,2049.00,3237.05,2888.00,3312.32,600.19,598.95,14.43,0000 0000 0000 0000 000000
2017-10-25 04:10:40,0.13,0.82,0.00,18.93,22.34,25.30,13.95,46.42,1007.26,2049.00,3234.52,2886.25,3310.31,599.89,598.66,14.48,0000 0000 0000 0000 000000
2017-10-25 04:15:41,0.16,0.82,0.00,18.97,22.34,25.33,13.94,46.43,1007.24,2048.99,3231.26,2883.97,3307.77,599.89,598.43,14.53,0000 0000 0000 0000 000000
2017-10-25 04:20:42,0.21,0.83,0.00,18.99,22.36,25.34,14.01,46.53,1007.22,2048.99,3227.09,2881.18,3304.53,600.14,598.62,14.58,0000 0000 0000 0000 000000
2017-10-25 04:25:43,0.24,0.85,0.00,18.96,22.37,25.33,13.95,46.48,1007.23,2048.98,3221.94,2878.00,3300.82,599.99,598.70,14.63,0000 0000 0000 0000 000000
2017-10-25 04:30:45,0.15,0.86,0.00,18.98,22.37,25.39,14.12,46.64,1007.22,2048.97,3218.17,2875.60,3298.08,600.21,598.81,14.68,0000 0000 0000 0000 000000
2017-10-25 04:35:46,0.10,0.86,0.00,19.04,22.39,25.42,14.02,46.57,1007.18,2048.96,3215.72,2873.87,3296.26,599.98,598.56,14.73,0000 0000 0000 0000 000000
2017-10-25 04:40:48,0.14,0.87,0.00,19.07,22.39,25.41,14.00,46.48,1007.25,2048.95,3212.94,2871.99,3294.09,599.85,598.34,14.78,0000 0000 0000 0000 000000
2017-10-25 04:45:49,0.09,0.87,0.00,19.05,22.39,25.40,13.97,46.46,1007.32,2048.89,3210.67,2870.47,3292.36,599.84,598.40,14.83,0000 0000 0000 0000 000000
2017-10-25 04:50:50,0.08,0.88,0.00,19.01,22.40,25.42,14.04,46.52,1007.32,2048.82,3208.81,2869.16,3290.90,600.11,598.84,14.88,0000 0000 0000 0000 000000
2017-10-25 04:55:52,0.06,0.88,0.00,19.07,22.42,25.45,14.05,46.50,1007.28,2048.70,3207.09,2867.88,3289.57,600.19,598.61,14.93,0000 0000 0000 0000 000000
2017-10-25 05:00:53,0.09,0.89,0.00,19.08,22.42,25.46,13.97,46.42,1007.28,2048.68,3205.35,2866.69,3288.21,599.92,598.40,14.98,0000 0000 0000 0000 000000
2017-10-25 05:05:54,0.07,0.89,0.00,19.08,22.42,25.48,14.04,46.50,1007.26,2048.58,3203.67,2865.54,3286.83,600.22,598.67,15.03,0000 0000 0000 0000 000000
2017-10-25 05:10:56,0.06,0.89,0.00,19.06,22.43,25.48,14.10,46.42,1007.33,2048.38,3201.86,2864.31,3285.47,600.36,598.90,15.08,0000 0000 0000 0000 000000
2017-10-25 05:15:57,0.06,0.90,0.00,19.09,22.44,25.49,14.08,46.49,1007.34,2048.13,3200.14,2862.99,3284.06,600.18,598.67,15.13,0000 0000 0000 0000 000000
2017-10-25 05:20:59,0.08,0.90,0.00,19.12,22.44,25.49,14.05,46.50,1007.34,2048.07,3198.61,2861.75,3282.74,600.03,598.45,15.18,0000 0000 0000 0000 000000
2017-10-25 05:26:00,0.08,0.91,0.00,19.08,22.44,25.49,13.94,46.50,1007.34,2048.04,3196.91,2860.63,3281.40,600.16,598.65,15.23,0000 0000 0000 0000 000000
2017-10-25 05:31:02,0.08,0.91,0.00,19.11,22.46,25.50,13.96,46.56,1007.34,2048.04,3195.25,2859.39,3280.00,600.07,598.49,15.28,0000 0000 0000 0000 000000
2017-10-25 05:36:03,0.06,0.91,0.00,19.10,22.47,25.50,13.96,46.44,1007.34,2048.01,3193.88,2858.34,3278.95,599.76,598.22,15.34,0000 0000 0000 0000 000000
2017-10-25 05:41:05,0.06,0.92,0.00,19.10,22.47,25.54,14.00,46.52,1007.34,2048.02,3192.70,2857.52,3278.04,599.91,598.38,15.39,0000 0000 0000 0000 000000
2017-10-25 05:46:06,0.04,0.92,0.00,19.15,22.47,25.55,14.00,46.42,1007.34,2048.00,3191.68,2856.85,3277.11,600.24,598.53,15.44,0000 0000 0000 0000 000000
2017-10-25 05:51:07,0.05,0.92,0.00,19.15,22.47,25.56,14.02,46.42,1007.34,2048.00,3190.58,2856.04,3276.20,600.22,598.60,15.49,0000 0000 0000 0000 000000
2017-10-25 05:56:09,0.06,0.93,0.00,19.08,22.48,25.59,14.02,46.31,1007.34,2048.00,3189.56,2855.22,3275.38,600.08,598.52,15.54,0000 0000 0000 0000 000000
2017-10-25 06:01:10,0.06,0.93,0.00,19.14,22.49,25.58,14.12,46.43,1007.34,2048.00,3188.54,2854.39,3274.52,600.27,598.75,15.59,0000 0000 0000 0000 000000
2017-10-25 06:06:12,0.04,0.93,0.00,19.13,22.49,25.57,14.06,46.32,1007.34,2048.00,3187.62,2853.76,3273.73,599.91,598.35,15.64,0000 0000 0000 0000 000000
2017-10-25 06:11:13,0.04,0.93,0.00,19.14,22.49,25.58,13.96,46.24,1007.34,2048.00,3186.69,2853.02,3272.96,600.00,598.35,15.69,0000 0000 0000 0000 000000
2017-10-25 06:16:14,0.06,0.94,0.00,19.13,22.50,25.57,14.07,46.42,1007.34,2048.00,3185.63,2852.23,3272.10,600.20,598.66,15.74,0000 0000 0000 0000 000000
2017-10-25 06:21:15,0.06,0.94,0.00,19.15,22.51,25.58,14.00,46.28,1007.34,2047.99,3184.58,2851.51,3271.16,600.45,598.82,15.79,0000 0000 0000 0000 000000
2017-10-25 06:26:16,0.09,0.94,0.00,19.16,22.52,25.60,13.95,46.28,1007.34,2047.98,3182.85,2850.16,3269.71,600.03,598.41,15.84,0000 0000 0000 0000 000000
2017-10-25 06:31:17,0.10,0.95,0.00,19.15,22.52,25.61,13.95,46.21,1007.36,2047.98,3180.91,2848.76,3268.12,599.75,598.17,15.89,0000 0000 0000 0000 000000
2017-10-25 06:36:19,0.10,0.95,0.00,19.13,22.52,25.60,13.94,46.33,1007.37,2047.98,3178.88,2847.36,3266.47,599.87,598.37,15.94,0000 0000 0000 0000 000000
2017-10-25 06:41:20,0.10,0.96,0.00,19.15,22.54,25.60,13.89,46.34,1007.43,2047.97,3176.86,2845.84,3264.87,599.86,598.24,15.99,0000 0000 0000 0000 000000
2017-10-25 06:46:21,0.06,0.96,0.00,19.13,22.54,25.62,14.00,46.33,1007.51,2047.97,3175.55,2844.88,3263.80,599.77,598.27,16.04,0000 0000 0000 0000 000000
2017-10-25 06:51:23,0.05,0.97,0.00,19.14,22.54,25.63,14.05,46.22,1007.42,2047.95,3174.33,2843.96,3262.85,600.42,598.86,16.09,0000 0000 0000 0000 000000
2017-10-25 06:56:24,0.06,0.97,0.00,19.15,22.56,25.63,14.00,46.33,1007.42,2047.86,3173.03,2843.00,3261.83,599.77,598.19,16.14,0000 0000 0000 0000 000000
2017-10-25 07:01:25,0.07,0.97,0.00,19.17,22.57,25.68,13.98,46.26,1007.43,2047.80,3171.59,2842.00,3260.67,600.13,598.50,16.19,0000 0000 0000 0000 000000
2017-10-25 07:06:27,0.06,0.97,0.00,19.13,22.57,25.61,14.03,46.40,1007.36,2047.79,3170.27,2841.04,3259.71,600.08,598.57,16.24,0000 0000 0000 0000 000000
2017-10-25 07:11:28,0.03,0.98,0.00,19.16,22.58,25.64,13.92,46.31,1007.37,2047.71,3169.18,2840.16,3258.80,599.86,598.24,16.29,0000 0000 0000 0000 000000
2017-10-25 07:16:29,0.04,0.98,0.00,19.16,22.59,25.67,14.06,46.33,1007.47,2047.63,3168.24,2839.46,3258.00,600.23,598.72,16.34,0000 0000 0000 0000 000000
2017-10-25 07:21:30,0.03,0.98,0.00,19.15,22.59,25.70,13.99,46.33,1007.53,2047.42,3167.40,2838.86,3257.16,599.80,598.37,16.39,0000 0000 0000 0000 000000
2017-10-25 07:26:32,0.04,0.98,0.00,19.13,22.59,25.70,14.01,46.45,1007.67,2047.28,3166.39,2838.06,3256.44,599.77,598.39,16.44,0000 0000 0000 0000 000000
2017-10-25 07:31:33,0.05,0.98,0.00,19.16,22.60,25.72,14.01,46.38,1007.71,2047.19,3165.53,2837.35,3255.77,599.78,598.34,16.49,0000 0000 0000 0000 000000
2017-10-25 07:36:34,0.03,0.99,0.00,19.16,22.61,25.72,13.93,46.34,1007.68,2047.16,3164.70,2836.83,3254.97,599.36,597.96,16.54,0000 0000 0000 0000 000000
2017-10-25 07:41:36,0.04,0.99,0.00,19.10,22.62,25.71,14.01,46.38,1007.67,2047.11,3163.81,2836.04,3254.09,599.88,598.50,16.59,0000 0000 0000 0000 000000
2017-10-25 07:46:37,0.06,0.99,0.00,19.14,22.62,25.75,14.00,46.36,1007.75,2047.11,3162.88,2835.32,3253.37,599.92,598.55,16.64,0000 0000 0000 0000 000000
2017-10-25 07:51:38,0.05,0.99,0.00,19.16,22.62,25.77,14.05,46.29,1007.83,2047.07,3161.89,2834.63,3252.54,600.27,598.91,16.69,0000 0000 0000 0000 000000
2017-10-25 07:56:39,0.03,1.00,0.00,19.10,22.62,25.71,13.96,46.39,1007.83,2047.04,3161.00,2833.96,3251.79,599.85,598.59,16.74,0000 0000 0000 0000 000000
2017-10-25 08:01:40,0.04,1.00,0.00,19.14,22.62,25.79,13.98,46.36,1007.82,2047.03,3160.10,2833.13,3251.01,599.67,598.27,16.79,0000 0000 0000 0000 000000
2017-10-25 08:06:42,0.06,1.00,0.00,19.17,22.62,25.78,13.98,46.44,1007.83,2047.04,3159.15,2832.49,3250.17,599.83,598.51,16.84,0000 0000 0000 0000 000000
2017-10-25 08:11:43,0.03,1.00,0.00,19.13,22.62,25.80,14.00,46.44,1007.83,2047.04,3158.18,2831.94,3249.42,599.95,598.71,16.89,0000 0000 0000 0000 000000
2017-10-25 08:16:44,0.04,1.01,0.00,19.05,22.62,25.79,13.98,46.23,1007.83,2047.02,3157.52,2831.11,3248.94,599.88,598.70,16.94,0000 0000 0000 0000 000000
2017-10-25 08:21:45,0.02,1.01,0.00,19.14,22.62,25.86,13.99,46.26,1007.83,2047.01,3157.01,2830.87,3248.13,600.21,598.89,16.99,0000 0000 0000 0000 000000
2017-10-25 08:26:46,0.05,1.01,0.00,19.17,22.62,25.84,13.98,46.26,1007.83,2047.00,3156.38,2830.10,3247.47,600.03,598.66,17.04,0000 0000 0000 0000 000000
2017-10-25 08:31:48,0.04,1.01,0.00,19.16,22.62,25.75,13.96,46.36,1007.83,2047.00,3155.68,2829.62,3246.74,599.90,598.53,17.09,0000 0000 0000 0000 000000
2017-10-25 08:36:49,0.02,1.01,0.00,19.11,22.62,25.75,13.95,46.18,1007.83,2047.00,3154.91,2829.01,3245.98,599.73,598.35,17.14,0000 0000 0000 0000 000000
2017-10-25 08:41:50,0.05,1.02,0.00,19.14,22.62,25.75,13.99,46.25,1007.83,2047.00,3154.04,2828.24,3245.19,599.85,598.57,17.19,0000 0000 0000 0000 000000
2017-10-25 08:46:52,0.05,1.02,0.00,19.16,22.62,25.71,13.98,46.28,1007.83,2047.00,3153.16,2827.69,3244.39,600.17,598.79,17.24,0000 0000 0000 0000 000000
2017-10-25 08:51:53,0.03,1.02,0.00,19.15,22.62,25.76,14.01,46.21,1007.81,2047.00,3152.05,2826.99,3243.75,600.32,598.97,17.29,0000 0000 0000 0000 000000
2017-10-25 08:56:54,0.05,1.02,0.00,19.14,22.62,25.71,14.10,46.32,1007.78,2047.00,3151.04,2826.18,3242.98,600.20,598.86,17.34,0000 0000 0000 0000 000000
2017-10-25 09:01:56,0.04,1.03,0.00,19.17,22.62,25.73,14.04,46.23,1007.76,2047.00,3150.30,2825.75,3242.14,599.80,598.47,17.39,0000 0000 0000 0000 000000
2017-10-25 09:06:57,0.03,1.03,0.00,19.15,22.61,25.75,14.01,46.17,1007.64,2047.00,3149.60,2825.04,3241.74,599.92,598.42,17.44,0000 0000 0000 0000 000000
2017-10-25 09:11:58,0.05,1.03,0.00,19.17,22.60,25.75,14.08,46.39,1007.65,2047.00,3148.67,2824.48,3240.87,600.51,598.98,17.49,0000 0000 0000 0000 000000
2017-10-25 09:16:59,0.04,1.03,0.00,19.12,22.59,25.69,13.93,46.38,1007.71,2047.00,3147.62,2823.85,3240.03,599.45,598.11,17.54,0000 0000 0000 0000 000000
2017-10-25 09:22:01,0.05,1.04,0.00,19.13,22.59,25.73,14.05,46.29,1007.70,2047.00,3146.69,2823.04,3239.13,600.16,598.62,17.59,0000 0000 0000 0000 000000
2017-10-25 09:27:02,0.06,1.04,0.00,19.14,22.59,25.78,14.11,46.52,1007.79,2047.00,3145.65,2822.28,3238.25,600.23,598.96,17.64,0000 0000 0000 0000 000000
2017-10-25 09:32:03,0.05,1.04,0.00,19.15,22.59,25.76,14.02,46.42,1007.80,2047.00,3144.68,2821.58,3237.39,600.20,598.84,17.69,0000 0000 0000 0000 000000
2017-10-25 09:37:05,0.05,1.04,0.00,19.10,22.58,25.75,14.03,46.52,1007.82,2047.00,3143.41,2820.78,3236.56,599.93,598.68,17.74,0000 0000 0000 0000 000000
2017-10-25 09:42:06,0.06,1.05,0.00,19.07,22.57,25.74,13.86,46.44,1007.83,2047.00,3141.95,2819.84,3235.60,599.76,598.58,17.79,0000 0000 0000 0000 000000
2017-10-25 09:47:07,0.06,1.05,0.00,19.12,22.57,25.80,14.08,46.56,1007.83,2047.00,3140.46,2818.89,3234.67,600.14,598.91,17.84,0000 0000 0000 0000 000000
2017-10-25 09:52:09,0.06,1.05,0.00,19.10,22.56,25.84,13.94,46.33,1007.83,2047.00,3139.08,2817.96,3233.68,599.60,598.47,17.89,0000 0000 0000 0000 000000
2017-10-25 09:57:10,0.07,1.06,0.00,19.11,22.55,25.84,14.08,46.51,1007.81,2047.00,3137.71,2817.06,3232.68,600.14,598.87,17.94,0000 0000 0000 0000 000000
2017-10-25 10:02:11,0.06,1.06,0.00,19.05,22.54,25.78,13.86,46.33,1007.67,2047.00,3136.57,2816.18,3231.70,599.40,598.19,17.99,0000 0000 0000 0000 000000
2017-10-25 10:07:12,0.06,1.06,0.00,19.06,22.54,25.75,13.93,46.50,1007.60,2047.00,3135.52,2815.48,3230.58,599.83,598.49,18.04,0000 0000 0000 0000 000000
2017-10-25 10:12:13,0.02,1.07,0.00,19.05,22.53,25.80,14.05,46.53,1007.41,2047.00,3134.78,2814.87,3229.82,600.13,598.65,18.09,0000 0000 0000 0000 000000
2017-10-25 10:17:15,0.05,1.07,0.00,19.06,22.52,25.84,13.98,46.54,1007.42,2047.00,3133.76,2814.05,3228.93,599.96,598.57,18.14,0000 0000 0000 0000 000000
2017-10-25 10:22:16,0.05,1.07,0.00,19.06,22.52,25.79,13.94,46.55,1007.46,2047.00,3132.79,2813.31,3228.06,599.85,598.53,18.20,0000 0000 0000 0000 000000
2017-10-25 10:27:17,0.04,1.07,0.00,19.04,22.52,25.75,14.14,46.67,1007.49,2047.00,3131.80,2812.79,3227.34,600.23,598.91,18.25,0000 0000 0000 0000 000000
2017-10-25 10:32:19,0.04,1.08,0.00,19.02,22.51,25.71,14.01,46.54,1007.64,2047.00,3130.93,2812.04,3226.68,599.82,598.59,18.30,0000 0000 0000 0000 000000
2017-10-25 10:37:20,0.05,1.08,0.00,19.01,22.50,25.73,13.96,46.52,1007.65,2047.00,3129.88,2811.36,3225.98,600.02,598.93,18.35,0000 0000 0000 0000 000000
2017-10-25 10:42:21,0.04,1.08,0.00,19.01,22.49,25.74,14.02,46.59,1007.46,2047.00,3128.83,2810.77,3225.20,600.08,598.82,18.40,0000 0000 0000 0000 000000
2017-10-25 10:47:23,0.04,1.08,0.00,19.03,22.49,25.77,14.00,46.42,1007.45,2047.00,3127.88,2810.03,3224.73,599.81,598.57,18.45,0000 0000 0000 0000 000000
2017-10-25 10:52:24,0.04,1.09,0.00,18.97,22.47,25.81,14.01,46.52,1007.36,2047.00,3127.02,2809.49,3224.02,600.04,598.86,18.50,0000 0000 0000 0000 000000
2017-10-25 10:57:25,0.03,1.09,0.00,18.98,22.47,25.85,14.05,46.55,1007.37,2047.00,3126.06,2808.93,3223.26,599.93,598.65,18.55,0000 0000 0000 0000 000000
2017-10-25 11:02:26,0.05,1.09,0.00,18.99,22.47,25.79,14.11,46.57,1007.38,2047.00,3125.09,2808.10,3222.70,600.28,598.95,18.60,0000 0000 0000 0000 000000
2017-10-25 11:07:28,0.03,1.09,0.00,18.97,22.46,25.70,14.06,46.49,1007.35,2047.00,3124.49,2807.80,3221.99,600.05,598.80,18.65,0000 0000 0000 0000 000000
2017-10-25 11:12:29,0.04,1.10,0.00,18.90,22.44,25.76,14.03,46.53,1007.40,2047.00,3123.79,2807.06,3221.15,600.08,598.95,18.70,0000 0000 0000 0000 000000
2017-10-25 11:17:30,0.05,1.10,0.00,18.92,22.44,25.79,14.02,46.70,1007.36,2047.00,3122.91,2806.54,3220.65,600.06,598.93,18.75,0000 0000 0000 0000 000000
2017-10-25 11:22:31,0.03,1.10,0.00,18.92,22.43,25.77,13.99,46.63,1007.37,2047.00,3122.05,2805.98,3219.87,599.77,598.66,18.80,0000 0000 0000 0000 000000
2017-10-25 11:27:32,0.05,1.10,0.00,18.87,22.42,25.76,14.04,46.69,1007.37,2047.00,3121.27,2805.26,3219.07,600.34,599.33,18.85,0000 0000 0000 0000 000000
2017-10-25 11:32:34,0.02,1.10,0.00,18.91,22.41,25.76,13.97,46.58,1007.34,2047.00,3120.33,2804.96,3218.74,600.01,598.89,18.90,0000 0000 0000 0000 000000
2017-10-25 11:37:35,0.04,1.11,0.00,18.92,22.39,25.70,13.96,46.48,1007.35,2047.00,3119.69,2804.21,3218.03,599.90,598.69,18.95,0000 0000 0000 0000 000000
2017-10-25 11:42:37,0.02,1.11,0.00,18.90,22.39,25.72,13.99,46.51,1007.36,2047.00,3118.91,2803.90,3217.45,599.96,598.83,19.00,0000 0000 0000 0000 000000
2017-10-25 11:47:38,0.04,1.11,0.00,18.85,22.39,25.66,14.00,46.41,1007.36,2047.01,3118.05,2803.10,3217.01,599.84,598.83,19.05,0000 0000 0000 0000 000000
2017-10-25 11:52:39,0.03,1.11,0.00,18.89,22.38,25.70,14.02,46.49,1007.34,2047.01,3117.19,2802.88,3216.32,599.99,598.95,19.10,0000 0000 0000 0000 000000
2017-10-25 11:57:40,0.04,1.11,0.00,18.86,22.37,25.69,14.09,46.50,1007.34,2047.06,3116.33,2802.07,3215.96,600.08,599.07,19.15,0000 0000 0000 0000 000000
2017-10-25 12:02:41,0.12,1.12,0.00,18.85,22.37,25.71,14.02,46.45,1007.33,2047.53,3115.16,2801.55,3215.20,599.98,598.98,19.20,0000 0000 0000 0000 000000
2017-10-25 12:07:43,0.03,1.12,0.00,18.86,22.35,25.70,14.03,46.45,1007.34,2047.61,3114.47,2801.01,3214.55,599.92,598.90,19.25,0000 0000 0000 0000 000000
2017-10-25 12:12:44,0.03,1.12,0.00,18.84,22.34,25.67,13.99,46.42,1007.33,2047.61,3113.96,2800.57,3213.99,599.85,598.80,19.30,0000 0000 0000 0000 000000
2017-10-25 12:17:45,0.05,1.13,0.00,18.84,22.34,25.71,13.97,46.42,1007.31,2047.75,3113.13,2800.02,3213.22,599.64,598.64,19.35,0000 0000 0000 0000 000000
2017-10-25 12:22:47,0.06,1.13,0.00,18.85,22.34,25.68,14.03,46.45,1007.25,2047.90,3112.15,2799.42,3212.87,600.23,599.22,19.40,0000 0000 0000 0000 000000
2017-10-25 12:27:48,0.04,1.13,0.00,18.80,22.32,25.59,14.05,46.46,1007.10,2047.98,3111.06,2798.88,3212.06,600.01,598.96,19.45,0000 0000 0000 0000 000000
2017-10-25 12:32:49,0.04,1.13,0.00,18.79,22.32,25.64,13.97,46.54,1007.00,2047.90,3110.65,2798.09,3211.18,599.74,598.69,19.50,0000 0000 0000 0000 000000
2017-10-25 12:37:51,0.05,1.13,0.00,18.74,22.32,25.61,13.94,46.65,1006.93,2047.83,3109.57,2797.65,3210.70,599.78,598.80,19.55,0000 0000 0000 0000 000000
2017-10-25 12:42:52,0.03,1.14,0.00,18.75,22.31,25.58,14.10,46.72,1006.88,2047.92,3108.80,2797.01,3209.98,600.35,599.31,19.60,0000 0000 0000 0000 000000
2017-10-25 12:47:53,0.05,1.14,0.00,18.74,22.29,25.63,14.14,46.75,1006.86,2047.96,3107.98,2796.53,3209.18,600.31,599.23,19.65,0000 0000 0000 0000 000000
2017-10-25 12:52:55,0.03,1.14,0.00,18.70,22.29,25.62,14.12,46.73,1006.88,2047.97,3107.09,2796.01,3208.83,600.23,599.17,19.70,0000 0000 0000 0000 000000
2017-10-25 12:57:56,0.05,1.14,0.00,18.66,22.28,25.64,13.99,46.71,1006.89,2047.97,3106.06,2795.47,3208.07,600.10,599.05,19.75,0000 0000 0000 0000 000000